Location: Auckland
(36.8670°S, 174.7670°E)
Time: 23:54:21
(UTC+12:00)

A-11 Canister half - Pass Details

Date: 26 July 2019
Orbit: 1526 x 1683 km, 47.3° (Epoch: 21 August)

Event Time Altitude Azimuth Distance (km) Brightness Sun altitude
Rises 07:35:39 0° 303° (WNW) 4,672 11.2 1.1°
Reaches altitude 10° 07:38:39 10° 302° (WNW) 3,697 10.7 1.7°
Maximum altitude 07:48:01 86° 213° (SSW) 1,562 9.2 3.3°
Drops below altitude 10° 07:57:41 10° 123° (ESE) 3,800 11.5 5.0°
Sets 08:00:49 0° 122° (ESE) 4,807 12.0 5.6°
